User: anonymous   Login
Location: Gloden
(48.4833°N, 15.3167°E)
Time: 14:13:58
(UTC+00:00)
Language:

COSMOS 2406 - Orbit

View from above orbital plane
View from above orbital plane
View from above satellite
View from above satellite

Ground track
Ground track

The orbit data is extracted from the following two-line orbital elements,

1 28352U 04021A   20056.78907893 +.00000064 +00000-0 +60896-4 0  9994
2 28352 070.9984 230.8140 0013403 050.2894 309.9406 14.11658727809613
Epoch (UTC): 25 February 2020 18:56:16
Eccentricity: 0.0013403
inclination: 70.9984°
perigee height: 844 km
apogee height: 863 km
right ascension of ascending node: 230.8140°
argument of perigee: 50.2894°
revolutions per day: 14.11658727
mean anomaly at epoch: 309.9406°
orbit number at epoch: 80961

The dashed part of the orbit path shows where the satellite is in the earth's shadow,  

DLR